FW2285 Weather Reports


time (UTC)temp
F
wind
direction
speed
knots
gust
knots
rain 1hr
in
rain 24hr
in
rain mn
in
humidity
%
barometer
mb
20260505011529 72 306 0.0 0.0 0.00 0.00 0.00 44 1001.7
20260505010029 73 306 0.0 0.0 0.00 0.00 0.00 42 1001.7
20260505004533 74 306 0.0 0.0 0.00 0.00 0.00 41 1001.6
20260505003028 76 306 0.0 0.9 0.00 0.00 0.00 39 1001.4
20260505001529 77 306 0.0 1.7 0.00 0.00 0.00 37 1001.5
20260505000035 77 304 0.0 2.6 0.00 0.00 0.00 36 1001.7
20260504234525 77 240 0.9 2.6 0.00 0.00 0.00 36 1001.5
20260504233025 78 290 0.9 4.3 0.00 0.00 0.00 36 1001.5
20260504231524 79 107 0.9 6.1 0.00 0.00 0.00 34 1001.5
20260504230024 80 260 0.9 5.2 0.00 0.00 0.00 34 1001.5
20260504224524 81 139 0.9 7.8 0.00 0.00 0.00 35 1001.6
20260504223033 81 115 0.9 2.6 0.00 0.00 0.00 32 1001.6
20260504221525 81 253 2.6 5.2 0.00 0.00 0.00 28 1001.5
20260504220021 82 113 0.9 4.3 0.00 0.00 0.00 30 1002.2
20260504214524 83 184 0.9 7.0 0.00 0.00 0.00 27 1001.6
20260504213032 83 248 1.7 6.1 0.00 0.00 0.00 25 1001.7
20260504211523 83 240 1.7 7.8 0.00 0.00 0.00 27 1001.7
20260504210019 82 182 1.7 7.0 0.00 0.00 0.00 30 1001.8
20260504204532 82 122 1.7 7.0 0.00 0.00 0.00 31 1002.0
20260504203020 82 119 0.9 5.2 0.00 0.00 0.00 31 1002.2
20260504201513 82 236 1.7 6.1 0.00 0.00 0.00 34 1002.3
20260504200011 82 260 0.9 5.2 0.00 0.00 0.00 34 1002.4
20260504194509 81 239 0.9 3.5 0.00 0.00 0.00 36 1002.5
20260504193008 81 183 0.9 6.1 0.00 0.00 0.00 30 1002.5
20260504191506 80 248 0.9 6.1 0.00 0.00 0.00 29 1002.5
20260504190005 80 261 1.7 6.1 0.00 0.00 0.00 32 1002.6
20260504184504 80 148 1.7 5.2 0.00 0.00 0.00 31 1002.7
20260504183002 78 109 1.7 7.0 0.00 0.00 0.00 31 1002.8
20260504181604 78 212 0.9 7.8 0.00 0.00 0.00 37 1002.8
20260504180059 77 208 1.7 6.1 0.00 0.00 0.00 33 1002.9
20260504174611 77 180 1.7 3.5 0.00 0.00 0.00 39 1003.1
20260504173054 76 271 2.6 8.7 0.00 0.00 0.00 38 1003.2
20260504171553 76 138 1.7 6.1 0.00 0.00 0.00 36 1003.3
20260504090112 56 100 0.0 0.0 0.00 0.00 0.00 54 1005.7
20260504081554 58 100 0.0 0.0 0.00 0.00 0.00 53 1005.8
20260504050022 68 29 0.0 3.5 0.00 0.00 0.00 37 1007.9
20260504044533 68 67 0.9 7.0 0.00 0.00 0.00 38 1009.1
20260504043023 69 86 2.6 6.1 0.00 0.00 0.00 36 1008.5
20260504041519 70 157 0.9 4.3 0.00 0.00 0.00 34 1008.2
20260504040018 69 265 0.0 2.6 0.00 0.00 0.00 37 1008.5
20260504034516 68 279 0.0 1.7 0.00 0.00 0.00 38 1008.8
20260504033016 67 279 0.0 0.9 0.00 0.00 0.00 42 1009.2
20260504031516 63 279 0.0 0.9 0.00 0.00 0.00 47 1009.1
20260504030021 63 279 0.0 0.0 0.00 0.00 0.00 49 1008.8
20260504024515 63 279 0.0 0.0 0.00 0.00 0.00 50 1008.7
20260504023016 63 279 0.0 0.0 0.00 0.00 0.00 50 1008.9
20260504021513 64 279 0.0 0.0 0.00 0.00 0.00 49 1008.8
20260504020016 64 279 0.0 0.0 0.00 0.00 0.00 47 1008.7
20260504014513 65 279 0.0 0.0 0.00 0.00 0.00 45 1008.6
20260504013013 66 279 0.0 0.0 0.00 0.00 0.00 43 1008.5